Regional Weather Roundup
Issued by NWS

Home | Current Version | Previous Version | Graphics & Text | Print | Product List | Glossary On
Versions: 1 2 3 4 5 6 7 8 9 10 11 12 13 14 15 16 17 18 19 20 21 22 23 24 25 26 27 28 29 30 31 32 33 34 35 36 37 38 39 40 41 42 43 44 45 46 47 48 49 50
455
ASUS45 KBOU 271007
RWRCO

WEATHER ROUNDUP FOR COLORADO
NATIONAL WEATHER SERVICE DENVER/BOULDER CO
400 AM MDT THU APR 27 2017

NOTE: "FAIR" INDICATES FEW OR NO CLOUDS BELOW 12000 FEET WITH NO
SIGNIFICANT WEATHER AND/OR OBSTRUCTIONS TO VISIBILITY.

COZ001>005-013-030-031-271100-
...NORTHWEST COLORADO...

CITY           SKY/WX    TMP DP  RH WIND       PRES   REMARKS
CRAIG          LGT RAIN  38  35  89 CALM      29.64F
HAYDEN         CLOUDY    36  30  80 E5        29.64F
MEEKER         LGT RAIN  37  34  89 CALM      29.65F
MOUNT WERNER   NOT AVBL
STEAMBOAT SPGS CLOUDY    34  33  96 CALM      29.64F
WALDEN           N/A     32  27  80 S15       29.64F WCI  22
$$

COZ006>008-011-271100-
...WEST CENTRAL VALLEYS...

CITY           SKY/WX    TMP DP  RH WIND       PRES   REMARKS
GRAND JUNCTION CLOUDY    46  39  76 S8        29.65F
MONTROSE       FAIR      40  33  76 NE3       29.70F
EAGLE          CLOUDY    36  34  92 SE3       29.68F
RIFLE          CLOUDY    41  38  89 S6        29.66F
DELTA          CLOUDY    46  38  73 NE7       29.68F
NUCLA          CLOUDY    45  34  65 CALM      29.73F
$$

COZ017>023-064>068-271100-
...SOUTHWEST COLORADO...

CITY           SKY/WX    TMP DP  RH WIND       PRES   REMARKS
DURANGO        LGT RAIN  37  37 100 SW6       29.75F
CORTEZ         LGT RAIN  44  41  89 CALM      29.73F FOG
PAGOSA SPRINGS LGT SNOW  34  34  99 CALM      29.78R
TELLURIDE      LGT SNOW  32  32 100 CALM      29.78F
WOLF CREEK PAS SNOW      21  21 100 S16G23    29.84S VSB 1/2 WCI   7
$$

COZ009-010-012-014-032>034-037-058>063-271100-
...CENTRAL COLORADO...

CITY           SKY/WX    TMP DP  RH WIND       PRES   REMARKS
ASPEN          CLOUDY    33  32  96 CALM      29.66F
BUENA VISTA    CLOUDY    34  29  83 CALM      29.67F
COPPER MTN     LGT SNOW  27  19  74 MISG      29.72S
BERTHOUD PASS  CLOUDY    18   7  62 NW24G30   29.69F WCI   0
COTTONWOOD PAS CLOUDY    32  27  80 CALM      29.69F
GUNNISON       LGT RAIN  34  33  96 CALM      29.71F
KREMMLING      LGT SNOW  37  36  93 E3        29.66F
LEADVILLE      LGT SNOW  26  23  88 N5        29.68F FOG     WCI  20
MONARCH PASS   CLOUDY    23  21  93 SW23      29.84F WCI   7
SALIDA         CLOUDY    41  28  61 SW7       29.74F
SUNLIGHT       CLOUDY    27  25  93 SW14G26   29.74S WCI  15
WILKERSON PASS CLOUDY    23  19  86 SW16G22   29.71F WCI  10
$$

COZ069>075-271100-
...SAN LUIS VALLEY/SANGRE DE CRISTO MOUNTAINS...

CITY           SKY/WX    TMP DP  RH WIND       PRES   REMARKS
ALAMOSA        CLOUDY    40  27  59 CALM      29.70S
LA VETA PASS   LGT SNOW  30  25  80 SW26G43   29.82S VSB 1   WCI  16
SAGUACHE       CLOUDY    36  23  60 CALM      29.72S
$$

COZ035-036-038>040-271100-
...NORTHERN COLORADO FRONT RANGE...

CITY           SKY/WX    TMP DP  RH WIND       PRES   REMARKS
DENVER INTL AP MOCLDY    36  32  85 S8        29.57F
DMNS CITY PARK   N/A     41  33  74 W3        29.59F
AURORA         NOT AVBL
FRONT RANGE AP FAIR      37  34  87 SE6       29.59F
ERIE MUNI ARPT FAIR      39  36  91 CALM      29.60F
BOULDER MUN AP FAIR      41  36  81 CALM      29.59F
CENTENNIAL     FAIR      38  33  82 CALM      29.59F
BROOMFIELD     FAIR      41  36  81 NW13      29.60S
FORT COLLINS   FAIR      40  35  83 CALM      29.61F
LONGMONT       FAIR      42  37  84 CALM      29.62F HAZE
$$

COZ041-046-047-076>085-087-088-271100-
...PIKES PEAK/PALMER DIVIDE AND SOUTHERN FOOTHILLS...

CITY           SKY/WX    TMP DP  RH WIND       PRES   REMARKS
COLO. SPRINGS  MOCLDY    40  33  76 CALM      29.63F
A. F. ACADEMY  FAIR      33  31  92 CALM      29.61F
SCHRIEVER AFB  NOT AVBL
ELLICOTT       FAIR     N/A N/A N/A SE6       29.61
FALCON         MOCLDY    35  32  90 CALM      29.64F
FORT CARSON    NOT AVBL
LIMON          FAIR      31  31 100 CALM      29.62F
MONUMENT HILL  FAIR      32  30  93 S8        29.63F WCI  25
TRINIDAD       FAIR      44  31  60 W5        29.60F
$$

COZ042>045-048>051-090-091-271100-
...NORTHEAST COLORADO...

CITY           SKY/WX    TMP DP  RH WIND       PRES   REMARKS
GREELEY ARPT   FAIR      40  37  89 N5        29.61F
AKRON          FAIR      39  35  86 S9        29.61F
BURLINGTON     NOT AVBL
WRAY           NOT AVBL
STERLING       MOCLDY    41  39  93 S3        29.59F
HOLYOKE        FAIR      37  32  81 SE5       29.63S
FORT MORGAN    FAIR      37  36  93 E6        29.61S
$$

COZ086-089-092>099-271100-
...SOUTHEAST COLORADO...

CITY           SKY/WX    TMP DP  RH WIND       PRES   REMARKS
PUEBLO         FAIR      42  38  85 N5        29.60F
LA JUNTA       FAIR      41  37  86 NE5       29.60F
LAMAR          FAIR      38  34  85 E6        29.60F
SPRINGFIELD      N/A     40  35  83 SW12      29.65F
$$




USA.gov is the U.S. government's official web portal to all federal, state and local government web resources and services.